Time,TemperatureF,DewpointF,PressureIn,WindDirection,WindDirectionDegrees,WindSpeedMPH,WindSpeedGustMPH,Humidity,HourlyPrecipIn,Conditions,Clouds,dailyrainin,SoftwareType,DateUTC
2013-06-01 00:09:00,56.1,53.0,29.73,South,171,2.0,7.0,88,0.00,,,0.00,weatherlink.com 1.10,2013-06-01 04:09:00,
2013-06-01 00:24:00,55.5,52.0,29.73,SSE,155,0.0,4.0,89,0.00,,,0.00,weatherlink.com 1.10,2013-06-01 04:24:00,
2013-06-01 00:39:00,55.5,53.0,29.73,SSE,155,1.0,2.0,90,0.00,,,0.00,weatherlink.com 1.10,2013-06-01 04:39:00,
2013-06-01 00:54:00,55.3,53.0,29.74,SE,126,0.0,3.0,91,0.00,,,0.00,weatherlink.com 1.10,2013-06-01 04:54:00,
2013-06-01 01:09:00,55.3,53.0,29.74,NNW,340,2.0,3.0,91,0.00,,,0.00,weatherlink.com 1.10,2013-06-01 05:09:00,
2013-06-01 01:24:00,55.4,53.0,29.74,NNW,340,0.0,0.0,91,0.00,,,0.00,weatherlink.com 1.10,2013-06-01 05:24:00,
2013-06-01 01:39:00,55.3,53.0,29.74,NNW,330,1.0,2.0,91,0.00,,,0.00,weatherlink.com 1.10,2013-06-01 05:39:00,
2013-06-01 01:54:00,55.2,53.0,29.73,NNW,329,0.0,0.0,91,0.00,,,0.00,weatherlink.com 1.10,2013-06-01 05:54:00,
2013-06-01 02:09:00,55.0,53.0,29.73,NNW,329,0.0,0.0,92,0.00,,,0.00,weatherlink.com 1.10,2013-06-01 06:09:00,
2013-06-01 02:24:00,55.2,53.0,29.73,NNW,329,0.0,0.0,93,0.00,,,0.00,weatherlink.com 1.10,2013-06-01 06:24:00,
2013-06-01 02:39:00,55.2,53.0,29.73,NNW,329,0.0,0.0,93,0.00,,,0.00,weatherlink.com 1.10,2013-06-01 06:39:00,
2013-06-01 02:54:00,55.2,53.0,29.72,NNW,329,0.0,0.0,92,0.00,,,0.00,weatherlink.com 1.10,2013-06-01 06:54:00,
2013-06-01 03:09:00,55.1,53.0,29.72,NNW,329,0.0,0.0,93,0.00,,,0.00,weatherlink.com 1.10,2013-06-01 07:09:00,
2013-06-01 03:24:00,55.1,53.0,29.70,NNW,329,0.0,0.0,93,0.00,,,0.00,weatherlink.com 1.10,2013-06-01 07:24:00,
2013-06-01 03:39:00,55.4,54.0,29.69,East,90,2.0,3.0,93,0.00,,,0.00,weatherlink.com 1.10,2013-06-01 07:39:00,
2013-06-01 03:54:00,55.3,53.0,29.69,East,90,2.0,3.0,93,0.00,,,0.00,weatherlink.com 1.10,2013-06-01 07:54:00,
2013-06-01 04:09:00,55.7,54.0,29.69,SSE,159,1.0,5.0,94,0.00,,,0.00,weatherlink.com 1.10,2013-06-01 08:09:00,
2013-06-01 04:24:00,55.9,54.0,29.68,ESE,105,2.0,5.0,93,0.00,,,0.00,weatherlink.com 1.10,2013-06-01 08:24:00,
2013-06-01 04:39:00,55.8,54.0,29.68,SE,131,3.0,4.0,93,0.00,,,0.00,weatherlink.com 1.10,2013-06-01 08:39:00,
2013-06-01 04:54:00,56.0,54.0,29.67,SE,135,4.0,6.0,93,0.00,,,0.00,weatherlink.com 1.10,2013-06-01 08:54:00,
2013-06-01 05:09:00,55.9,54.0,29.68,SE,140,4.0,5.0,93,0.00,,,0.00,weatherlink.com 1.10,2013-06-01 09:09:00,
2013-06-01 05:24:00,55.3,53.0,29.68,NW,320,0.0,3.0,92,0.00,,,0.00,weatherlink.com 1.10,2013-06-01 09:24:00,
2013-06-01 05:40:00,55.9,54.0,29.68,East,101,3.0,6.0,94,0.00,,,0.00,weatherlink.com 1.10,2013-06-01 09:40:00,
2013-06-01 05:55:00,56.1,54.0,29.67,ESE,102,1.0,5.0,94,0.00,,,0.00,weatherlink.com 1.10,2013-06-01 09:55:00,
2013-06-01 06:10:00,56.2,55.0,29.67,SE,142,2.0,4.0,94,0.00,,,0.00,weatherlink.com 1.10,2013-06-01 10:10:00,
2013-06-01 06:25:00,56.4,55.0,29.68,SSE,159,0.0,2.0,95,0.00,,,0.00,weatherlink.com 1.10,2013-06-01 10:25:00,
2013-06-01 06:40:00,56.9,56.0,29.68,ESE,119,0.0,3.0,95,0.00,,,0.00,weatherlink.com 1.10,2013-06-01 10:40:00,
2013-06-01 06:55:00,57.4,56.0,29.68,ESE,120,3.0,10.0,95,0.00,,,0.00,weatherlink.com 1.10,2013-06-01 10:55:00,
2013-06-01 07:10:00,56.4,55.0,29.68,South,173,2.0,11.0,95,0.00,,,0.00,weatherlink.com 1.10,2013-06-01 11:10:00,
2013-06-01 07:25:00,56.0,55.0,29.67,SE,144,5.0,12.0,95,0.00,,,0.00,weatherlink.com 1.10,2013-06-01 11:25:00,
2013-06-01 07:40:00,56.4,55.0,29.67,SE,128,5.0,11.0,95,0.00,,,0.00,weatherlink.com 1.10,2013-06-01 11:40:00,
2013-06-01 07:55:00,56.4,55.0,29.66,South,173,5.0,13.0,94,0.00,,,0.00,weatherlink.com 1.10,2013-06-01 11:55:00,
2013-06-01 08:10:00,56.1,54.0,29.64,South,169,5.0,11.0,94,0.00,,,0.00,weatherlink.com 1.10,2013-06-01 12:10:00,
2013-06-01 08:25:00,55.7,54.0,29.64,SE,140,6.0,9.0,94,0.00,,,0.00,weatherlink.com 1.10,2013-06-01 12:25:00,
2013-06-01 08:40:00,55.0,54.0,29.66,South,182,3.0,10.0,95,0.02,,,0.02,weatherlink.com 1.10,2013-06-01 12:40:00,
2013-06-01 08:56:00,54.2,53.0,29.67,South,182,6.0,17.0,95,0.30,,,0.30,weatherlink.com 1.10,2013-06-01 12:56:00,
2013-06-01 09:10:00,55.4,54.0,29.66,SSE,159,4.0,12.0,96,0.30,,,0.30,weatherlink.com 1.10,2013-06-01 13:10:00,
2013-06-01 09:25:00,57.5,57.0,29.65,SSW,192,6.0,8.0,97,0.30,,,0.30,weatherlink.com 1.10,2013-06-01 13:25:00,
2013-06-01 09:40:00,58.1,57.0,29.66,South,179,4.0,9.0,96,0.28,,,0.30,weatherlink.com 1.10,2013-06-01 13:40:00,
2013-06-01 09:55:00,59.3,58.0,29.66,South,171,2.0,8.0,96,0.01,,,0.30,weatherlink.com 1.10,2013-06-01 13:55:00,
2013-06-01 10:10:00,60.6,60.0,29.65,SSE,163,1.0,8.0,97,0.00,,,0.30,weatherlink.com 1.10,2013-06-01 14:10:00,
2013-06-01 10:25:00,61.8,61.0,29.66,South,180,2.0,7.0,96,0.00,,,0.30,weatherlink.com 1.10,2013-06-01 14:25:00,
2013-06-01 10:40:00,63.1,62.0,29.65,South,171,6.0,9.0,96,0.00,,,0.30,weatherlink.com 1.10,2013-06-01 14:40:00,
2013-06-01 10:55:00,63.4,62.0,29.65,South,169,2.0,7.0,95,0.00,,,0.30,weatherlink.com 1.10,2013-06-01 14:55:00,
2013-06-01 11:10:00,63.9,62.0,29.66,SSW,202,3.0,9.0,94,0.00,,,0.30,weatherlink.com 1.10,2013-06-01 15:10:00,
2013-06-01 11:25:00,64.5,63.0,29.65,SSW,211,2.0,8.0,94,0.00,,,0.30,weatherlink.com 1.10,2013-06-01 15:25:00,
2013-06-01 11:40:00,64.6,63.0,29.66,SSE,155,1.0,7.0,93,0.00,,,0.30,weatherlink.com 1.10,2013-06-01 15:40:00,
2013-06-01 11:55:00,64.1,62.0,29.64,SSE,161,1.0,5.0,94,0.01,,,0.31,weatherlink.com 1.10,2013-06-01 15:55:00,
2013-06-01 12:10:00,65.5,64.0,29.64,SE,126,1.0,2.0,95,0.01,,,0.31,weatherlink.com 1.10,2013-06-01 16:10:00,
2013-06-01 12:25:00,66.7,65.0,29.65,NE,54,0.0,2.0,93,0.01,,,0.31,weatherlink.com 1.10,2013-06-01 16:25:00,
2013-06-01 12:40:00,68.8,66.0,29.64,SSW,205,5.0,7.0,89,0.01,,,0.31,weatherlink.com 1.10,2013-06-01 16:40:00,
2013-06-01 12:55:00,70.4,66.0,29.64,North,11,2.0,7.0,87,0.00,,,0.31,weatherlink.com 1.10,2013-06-01 16:55:00,
2013-06-01 13:10:00,59.5,55.0,29.65,WNW,302,8.0,13.0,85,0.00,,,0.31,weatherlink.com 1.10,2013-06-01 17:10:00,
2013-06-01 13:25:00,56.6,55.0,29.65,NW,306,4.0,7.0,94,0.00,,,0.31,weatherlink.com 1.10,2013-06-01 17:25:00,
2013-06-01 13:40:00,56.2,54.0,29.66,NW,305,3.0,6.0,93,0.00,,,0.31,weatherlink.com 1.10,2013-06-01 17:40:00,
2013-06-01 13:55:00,56.6,55.0,29.66,WNW,303,3.0,5.0,95,0.00,,,0.31,weatherlink.com 1.10,2013-06-01 17:55:00,
2013-06-01 14:10:00,57.8,56.0,29.65,NW,313,1.0,5.0,92,0.00,,,0.31,weatherlink.com 1.10,2013-06-01 18:10:00,
2013-06-01 14:25:00,58.0,56.0,29.65,NW,313,2.0,3.0,94,0.00,,,0.31,weatherlink.com 1.10,2013-06-01 18:25:00,
2013-06-01 14:40:00,61.4,60.0,29.65,SSE,159,1.0,6.0,96,0.00,,,0.31,weatherlink.com 1.10,2013-06-01 18:40:00,
2013-06-01 14:55:00,66.0,63.0,29.66,SSW,198,1.0,8.0,91,0.00,,,0.31,weatherlink.com 1.10,2013-06-01 18:55:00,
2013-06-01 15:10:00,67.4,64.0,29.66,ESE,111,2.0,5.0,89,0.00,,,0.31,weatherlink.com 1.10,2013-06-01 19:10:00,
2013-06-01 15:25:00,67.3,64.0,29.65,South,178,4.0,5.0,89,0.00,,,0.31,weatherlink.com 1.10,2013-06-01 19:25:00,
2013-06-01 15:40:00,68.5,64.0,29.64,North,350,1.0,5.0,86,0.00,,,0.31,weatherlink.com 1.10,2013-06-01 19:40:00,
2013-06-01 15:55:00,70.1,65.0,29.64,SSE,151,3.0,6.0,84,0.00,,,0.31,weatherlink.com 1.10,2013-06-01 19:55:00,
2013-06-01 16:10:00,72.0,64.0,29.64,NW,313,2.0,7.0,77,0.00,,,0.00,weatherlink.com 1.10,2013-06-01 20:10:00,
2013-06-01 16:25:00,65.5,60.0,29.64,WNW,300,3.0,7.0,83,0.00,,,0.00,weatherlink.com 1.10,2013-06-01 20:25:00,
2013-06-01 16:40:00,64.2,60.0,29.63,NW,317,4.0,8.0,85,0.00,,,0.00,weatherlink.com 1.10,2013-06-01 20:40:00,
2013-06-01 16:55:00,66.4,63.0,29.63,NE,40,0.0,3.0,88,0.00,,,0.00,weatherlink.com 1.10,2013-06-01 20:55:00,
2013-06-01 17:10:00,67.6,64.0,29.63,WSW,238,2.0,6.0,87,0.00,,,0.00,weatherlink.com 1.10,2013-06-01 21:10:00,
2013-06-01 17:25:00,72.2,64.0,29.63,WNW,294,5.0,8.0,76,0.00,,,0.00,weatherlink.com 1.10,2013-06-01 21:25:00,
2013-06-01 17:40:00,62.0,58.0,29.63,NW,305,2.0,7.0,87,0.00,,,0.00,weatherlink.com 1.10,2013-06-01 21:40:00,
2013-06-01 17:55:00,62.9,59.0,29.64,NW,313,0.0,3.0,87,0.00,,,0.00,weatherlink.com 1.10,2013-06-01 21:55:00,
2013-06-01 18:10:00,64.0,60.0,29.64,WNW,292,3.0,6.0,87,0.00,,,0.00,weatherlink.com 1.10,2013-06-01 22:10:00,
2013-06-01 18:25:00,63.4,59.0,29.63,NW,312,2.0,4.0,85,0.00,,,0.00,weatherlink.com 1.10,2013-06-01 22:25:00,
2013-06-01 18:40:00,60.7,56.0,29.63,NW,304,4.0,7.0,85,0.00,,,0.00,weatherlink.com 1.10,2013-06-01 22:40:00,
2013-06-01 18:55:00,60.4,57.0,29.62,NW,306,4.0,4.0,89,0.00,,,0.00,weatherlink.com 1.10,2013-06-01 22:55:00,
2013-06-01 19:10:00,60.7,57.0,29.63,WNW,291,0.0,4.0,86,0.00,,,0.00,weatherlink.com 1.10,2013-06-01 23:10:00,
2013-06-01 19:25:00,61.4,59.0,29.64,WNW,283,1.0,2.0,90,0.00,,,0.00,weatherlink.com 1.10,2013-06-01 23:25:00,
2013-06-01 19:40:00,62.7,58.0,29.64,NW,309,0.0,3.0,84,0.00,,,0.00,weatherlink.com 1.10,2013-06-01 23:40:00,
2013-06-01 19:56:00,61.8,57.0,29.65,NW,309,0.0,2.0,84,0.00,,,0.00,weatherlink.com 1.10,2013-06-01 23:56:00,
2013-06-01 20:11:00,61.1,57.0,29.65,NW,309,0.0,1.0,86,0.00,,,0.00,weatherlink.com 1.10,2013-06-02 00:11:00,
2013-06-01 20:26:00,59.3,56.0,29.65,NNE,16,3.0,5.0,88,0.00,,,0.00,weatherlink.com 1.10,2013-06-02 00:26:00,
2013-06-01 20:41:00,58.8,57.0,29.65,ENE,67,0.0,3.0,92,0.00,,,0.00,weatherlink.com 1.10,2013-06-02 00:41:00,
2013-06-01 20:56:00,62.0,60.0,29.64,SW,227,5.0,10.0,93,0.00,,,0.00,weatherlink.com 1.10,2013-06-02 00:56:00,
2013-06-01 21:11:00,62.0,60.0,29.64,ESE,103,0.0,2.0,92,0.00,,,0.00,weatherlink.com 1.10,2013-06-02 01:11:00,
2013-06-01 21:26:00,61.9,60.0,29.64,ESE,123,0.0,3.0,92,0.00,,,0.00,weatherlink.com 1.10,2013-06-02 01:26:00,
2013-06-01 21:41:00,61.9,60.0,29.65,SSW,195,5.0,5.0,92,0.00,,,0.00,weatherlink.com 1.10,2013-06-02 01:41:00,
2013-06-01 21:56:00,62.1,60.0,29.64,WNW,302,5.0,6.0,91,0.00,,,0.00,weatherlink.com 1.10,2013-06-02 01:56:00,
2013-06-01 22:11:00,62.0,59.0,29.64,WSW,246,2.0,5.0,91,0.00,,,0.00,weatherlink.com 1.10,2013-06-02 02:11:00,
2013-06-01 22:26:00,61.5,59.0,29.63,SSW,195,0.0,2.0,91,0.00,,,0.00,weatherlink.com 1.10,2013-06-02 02:26:00,
2013-06-01 22:41:00,60.4,58.0,29.63,SW,218,0.0,2.0,92,0.00,,,0.00,weatherlink.com 1.10,2013-06-02 02:41:00,
2013-06-01 22:56:00,59.7,58.0,29.62,SW,220,0.0,3.0,94,0.00,,,0.00,weatherlink.com 1.10,2013-06-02 02:56:00,
2013-06-01 23:11:00,59.1,58.0,29.62,South,184,2.0,4.0,95,0.00,,,0.00,weatherlink.com 1.10,2013-06-02 03:11:00,
2013-06-01 23:26:00,58.4,57.0,29.63,SSW,198,1.0,4.0,94,0.00,,,0.00,weatherlink.com 1.10,2013-06-02 03:26:00,
2013-06-01 23:41:00,59.9,58.0,29.64,NNW,334,6.0,22.0,94,0.00,,,0.00,weatherlink.com 1.10,2013-06-02 03:41:00,
2013-06-01 23:56:00,60.8,57.0,29.64,NW,304,4.0,10.0,88,0.00,,,0.00,weatherlink.com 1.10,2013-06-02 03:56:00,